This demonstration page uses our WeatherBlox Daily Observations layout. Learn more.

Hourly Observations for July 15, 2017

Temp ( °F °C ) Dew Point ( °F °C ) Humidity (%) Winds ( mph kmh ) Pressure ( in mb ) Visibility ( mi km ) Precip ( " mm )
12:53 am 00:53 Clear 68 20 63 17.2 84 84 NNW 6 9 30.11 1020 7 11.26538 0 0
1:53 am 01:53 Clear 66 18.9 62 16.7 87 87 Calm 30.11 1020 7 11.26538 0 0
2:53 am 02:53 Clear 65 18.3 61 16.1 87 87 NNW 5 7 30.11 1020 8 12.87472 0 0
3:53 am 03:53 Clear 62 16.7 61 16.1 96 96 NW 5 7 30.1 1019 7 11.26538 0 0
4:53 am 04:53 Clear 62 16.7 60 15.6 93 93 Calm 30.11 1020 7 11.26538 0 0
5:53 am 05:53 Clear 61 16.1 61 16.1 100 100 Calm 30.12 1020 8 12.87472 0 0
6:53 am 06:53 Sunny with Mist and Fog 61 16.1 60 15.6 97 97 Calm 30.13 1020 6 9.65604 0 0
7:53 am 07:53 Sunny 64 17.8 61 16.1 90 90 NW 3 6 30.14 1021 7 11.26538 0 0
8:53 am 08:53 Sunny 66 18.9 61 16.1 84 84 Calm 30.15 1021 7 11.26538 0 0
9:53 am 09:53 Sunny 70 21.1 63 17.2 79 79 NNW 5 7 30.14 1021 7 11.26538 0 0
10:53 am 10:53 Partly Cloudy 73 22.8 64 17.8 74 74 Calm 30.14 1021 8 12.87472 0 0
11:17 am 11:17 Mostly Cloudy 72 22.2 64 17.8 76 76 NW 3 6 30.12 1020 8 12.87472 0 0
11:24 am 11:24 Partly Cloudy 74 23.3 65 18.3 74 74 Calm 30.12 1020 7 11.26538 0 0
11:53 am 11:53 Partly Cloudy 75 23.9 65 18.3 71 71 undefined N/A 30.14 1021 8 12.87472 0 0
12:13 pm 12:13 Mostly Cloudy 76 24.4 65 18.3 69 69 Calm 30.12 1020 8 12.87472 0 0
12:20 pm 12:20 Partly Cloudy 76 24.4 65 18.3 69 69 N 6 9 30.12 1020 8 12.87472 0 0
12:53 pm 12:53 Mostly Cloudy 76 24.4 64 17.8 67 67 NW 3 6 30.13 1020 8 12.87472 0 0
1:53 pm 13:53 Mostly Cloudy 78 25.6 65 18.3 64 64 VRB 5 7 30.11 1020 8 12.87472 0 0
2:53 pm 14:53 Sunny 81 27.2 65 18.3 58 58 Calm 30.09 1019 7 11.26538 0 0
3:53 pm 15:53 Partly Cloudy 79 26.1 65 18.3 62 62 Calm 30.08 1019 7 11.26538 0 0
4:53 pm 16:53 Mostly Sunny 82 27.8 64 17.8 55 55 NE 3 6 30.06 1018 8 12.87472 0 0
5:53 pm 17:53 Sunny 83 28.3 64 17.8 53 53 Calm 30.04 1017 9 14.48406 0 0
6:53 pm 18:53 Sunny 82 27.8 64 17.8 55 55 Calm 30.03 1017 9 14.48406 0 0
7:53 pm 19:53 Sunny 80 26.7 65 18.3 60 60 N 3 6 30.02 1017 10 16.0934 0 0
8:53 pm 20:53 Sunny 74 23.3 67 19.4 79 79 N 3 6 30.03 1017 9 14.48406 0 0
9:53 pm 21:53 Clear 69 20.6 68 20 96 96 Calm 30.03 1017 9 14.48406 0 0
10:53 pm 22:53 Clear 68 20 67 19.4 96 96 Calm 30.03 1017 8 12.87472 0 0
11:53 pm 23:53 Clear 67 19.4 66 18.9 97 97 Calm 30.04 1017 7 11.26538 0 0

Powered by AerisWeather